Weather History for Orange, VA

Change the Weather History Date:

Tuesday, November 29, 2011

  Actual Average Record
Temperature  
Mean Temperature 54 °F -  
Max Temperature 62 °F 56 °F 72 °F (1989)
Min Temperature 46 °F 34 °F 9 °F (1955)
Degree Days  
Heating Degree Days 11    
Growing Degree Days 4 (Base 50)    
Moisture  
Dew Point 52 °F    
Average Humidity 91    
Maximum Humidity 100    
Minimum Humidity 66    
Precipitation  
Precipitation 0.69 in - - ()
Sea Level Pressure  
Sea Level Pressure 29.80 in    
Wind  
Wind Speed 7 mph (ESE)    
Max Wind Speed 15 mph    
Max Gust Speed 24 mph    
Visibility 9 miles    
Events Rain    
Averages and records for this station are not official NWS values.
T = Trace of Precipitation, MM = Missing Value Source: NWS Daily Summary

Daily Weather History Graph

Daily Weather History Graph

Search for Another Location

Airport:

Trip Planner

Search our weather history database for the weather conditions in past years. The results will help you decide how hot, cold, wet, or windy it might be!

Date:

Astronomy

Nov. 29, 2011 Rise Set
Actual Time 7:07 AM EST 4:52 PM EST
Civil Twilight 6:38 AM EST 5:21 PM EST
Nautical Twilight 6:06 AM EST 5:54 PM EST
Astronomical Twilight 5:34 AM EST 6:26 PM EST
Moon 10:54 AM EST (11/29) 9:42 PM EST (11/29)
Length of Visible Light 10h 43m
Length of Day
9h 45m
Waxing Crescent, 24% of the Moon is Illuminated
Nov 29
Waxing Crescent
Dec 2
First Quarter
Dec 10
Full
Dec 17
Last Quarter
Dec 24
New

Hourly Weather History & Observations

Time (EST) Temp. Windchill Dew Point Humidity Pressure Visibility Wind Dir Wind Speed Gust Speed Precip Events Conditions
12:15 AM 62.6 °F - 59.0 °F 88% 29.96 in 10.0 mi East 5.8 mph - N/A   Overcast
12:35 AM 62.6 °F - 59.0 °F 88% 29.94 in 10.0 mi East 5.8 mph - N/A   Mostly Cloudy
12:55 AM 62.6 °F - 59.0 °F 88% 29.93 in 10.0 mi ENE 8.1 mph - N/A   Mostly Cloudy
1:15 AM 60.8 °F - 59.0 °F 94% 29.93 in 10.0 mi ENE 4.6 mph - N/A   Scattered Clouds
1:35 AM 60.8 °F - 59.0 °F 94% 29.92 in 10.0 mi East 3.5 mph - N/A   Clear
1:55 AM 59.0 °F - 59.0 °F 100% 29.91 in 10.0 mi NE 4.6 mph - N/A   Clear
2:15 AM 59.0 °F - 59.0 °F 100% 29.91 in 10.0 mi ENE 4.6 mph - N/A   Scattered Clouds
2:35 AM 59.0 °F - 59.0 °F 100% 29.90 in 10.0 mi NE 3.5 mph - N/A   Mostly Cloudy
2:55 AM 59.0 °F - 59.0 °F 100% 29.88 in 10.0 mi NE 3.5 mph - N/A   Scattered Clouds
3:15 AM 59.0 °F - 59.0 °F 100% 29.88 in 10.0 mi NE 3.5 mph - N/A   Mostly Cloudy
3:35 AM 59.0 °F - 59.0 °F 100% 29.87 in 10.0 mi NNE 3.5 mph - N/A   Overcast
3:55 AM 59.0 °F - 59.0 °F 100% 29.85 in 10.0 mi NE 4.6 mph - N/A   Mostly Cloudy
4:15 AM 59.0 °F - 59.0 °F 100% 29.84 in 10.0 mi NE 4.6 mph - N/A   Mostly Cloudy
4:35 AM 59.0 °F - 59.0 °F 100% 29.83 in 10.0 mi ENE 6.9 mph - N/A   Scattered Clouds
4:55 AM 59.0 °F - 59.0 °F 100% 29.83 in 10.0 mi ENE 4.6 mph - N/A   Mostly Cloudy
5:15 AM 59.0 °F - 59.0 °F 100% 29.80 in 10.0 mi ENE 5.8 mph - N/A   Overcast
5:35 AM 60.8 °F - 60.8 °F 100% 29.80 in 10.0 mi ENE 8.1 mph - N/A   Overcast
5:55 AM 60.8 °F - 60.8 °F 100% 29.80 in 10.0 mi East 4.6 mph - N/A   Overcast
6:15 AM 60.8 °F - 60.8 °F 100% 29.79 in 10.0 mi ENE 5.8 mph - N/A   Overcast
6:35 AM 60.8 °F - 60.8 °F 100% 29.78 in 10.0 mi ENE 8.1 mph - 0.01 in Rain Rain
6:55 AM 60.8 °F - 60.8 °F 100% 29.77 in 5.0 mi ENE 8.1 mph - 0.07 in Rain Rain
7:15 AM 60.8 °F - 60.8 °F 100% 29.76 in 5.0 mi ENE 9.2 mph 19.6 mph 0.04 in Rain Light Rain
7:35 AM 60.8 °F - 60.8 °F 100% 29.76 in 5.0 mi East 10.4 mph 16.1 mph 0.10 in Rain Heavy Rain
7:55 AM 59.0 °F - 59.0 °F 100% 29.79 in 5.0 mi South 13.8 mph 18.4 mph 0.20 in Rain Heavy Rain
8:15 AM 57.2 °F - 57.2 °F 100% 29.80 in 5.0 mi South 12.7 mph 20.7 mph 0.06 in Rain Heavy Rain
8:35 AM 55.4 °F - 55.4 °F 100% 29.81 in 7.0 mi South 8.1 mph - 0.10 in Rain Rain
8:55 AM 55.4 °F - 55.4 °F 100% 29.81 in 7.0 mi SSE 10.4 mph - 0.15 in Rain Rain
9:15 AM 53.6 °F - 53.6 °F 100% 29.82 in 7.0 mi South 11.5 mph 17.3 mph 0.03 in Rain Rain
9:35 AM 51.8 °F - 51.8 °F 100% 29.83 in 7.0 mi SSE 9.2 mph - 0.09 in Rain Rain
9:55 AM 51.8 °F - 51.8 °F 100% 29.83 in 7.0 mi SE 8.1 mph - 0.13 in Rain Rain
10:15 AM 51.8 °F - 51.8 °F 100% 29.83 in 10.0 mi SE 8.1 mph - 0.04 in Rain Rain
10:35 AM 50.0 °F - 50.0 °F 100% 29.83 in 10.0 mi SSE 9.2 mph - 0.06 in Rain Light Rain
10:55 AM 50.0 °F - 50.0 °F 100% 29.83 in 10.0 mi South 11.5 mph - 0.08 in Rain Rain
11:35 AM 50.0 °F - 50.0 °F 100% 29.80 in 10.0 mi South 10.4 mph - 0.05 in Rain Light Rain
11:55 AM 50.0 °F - 50.0 °F 100% 29.81 in 10.0 mi SSE 8.1 mph - 0.06 in   Overcast
12:15 PM 50.0 °F - 50.0 °F 100% 29.78 in 10.0 mi South 6.9 mph - N/A   Overcast
12:35 PM 50.0 °F - 50.0 °F 100% 29.78 in 10.0 mi SSE 10.4 mph 16.1 mph N/A   Overcast
12:55 PM 51.8 °F - 50.0 °F 94% 29.77 in 10.0 mi SSE 8.1 mph - N/A   Overcast
1:35 PM 53.6 °F - 50.0 °F 88% 29.76 in 10.0 mi SSE 8.1 mph - N/A   Mostly Cloudy
1:55 PM 53.6 °F - 48.2 °F 82% 29.74 in 10.0 mi SE 5.8 mph - N/A   Scattered Clouds
2:55 PM 53.6 °F - 46.4 °F 77% 29.73 in 10.0 mi ESE 10.4 mph - N/A   Mostly Cloudy
3:15 PM 53.6 °F - 46.4 °F 77% 29.72 in 10.0 mi SE 5.8 mph - N/A   Scattered Clouds
3:35 PM 53.6 °F - 48.2 °F 82% 29.73 in 10.0 mi ESE 8.1 mph - N/A   Mostly Cloudy
3:55 PM 53.6 °F - 46.4 °F 77% 29.72 in 10.0 mi East 8.1 mph - N/A   Mostly Cloudy
4:15 PM 53.6 °F - 46.4 °F 77% 29.72 in 10.0 mi ESE 5.8 mph - N/A   Mostly Cloudy
4:35 PM 51.8 °F - 46.4 °F 82% 29.72 in 10.0 mi SE 4.6 mph - N/A   Scattered Clouds
4:55 PM 51.8 °F - 46.4 °F 82% 29.73 in 10.0 mi ESE 5.8 mph - N/A   Scattered Clouds
5:15 PM 50.0 °F - 46.4 °F 87% 29.73 in 10.0 mi ESE 5.8 mph - N/A   Scattered Clouds
5:35 PM 50.0 °F - 46.4 °F 87% 29.73 in 10.0 mi ESE 4.6 mph - N/A   Clear
5:55 PM 50.0 °F - 46.4 °F 87% 29.73 in 10.0 mi SE 3.5 mph - N/A   Clear
6:15 PM 48.2 °F - 44.6 °F 87% 29.73 in 10.0 mi SSE 3.5 mph - N/A   Clear
6:35 PM 50.0 °F - 44.6 °F 82% 29.73 in 10.0 mi SSE 4.6 mph - N/A   Scattered Clouds
6:55 PM 50.0 °F - 44.6 °F 82% 29.73 in 10.0 mi SSE 6.9 mph - N/A   Overcast
7:15 PM 50.0 °F - 44.6 °F 82% 29.73 in 10.0 mi South 6.9 mph - N/A   Overcast
7:35 PM 48.2 °F - 42.8 °F 82% 29.72 in 10.0 mi South 11.5 mph 16.1 mph N/A   Overcast
7:55 PM 48.2 °F - 39.2 °F 71% 29.72 in 10.0 mi South 10.4 mph 18.4 mph N/A   Overcast
8:15 PM 48.2 °F - 39.2 °F 71% 29.73 in 10.0 mi South 8.1 mph 16.1 mph N/A   Overcast
8:35 PM 48.2 °F - 37.4 °F 66% 29.73 in 10.0 mi South 10.4 mph 16.1 mph N/A   Overcast
8:55 PM 46.4 °F 41.1 °F 37.4 °F 71% 29.72 in 10.0 mi South 11.5 mph 19.6 mph N/A   Overcast
9:15 PM 46.4 °F 40.1 °F 35.6 °F 66% 29.72 in 10.0 mi South 15.0 mph 24.2 mph N/A   Overcast
9:35 PM 46.4 °F 41.5 °F 35.6 °F 66% 29.72 in 10.0 mi South 10.4 mph 19.6 mph N/A   Mostly Cloudy
9:55 PM 44.6 °F 38.4 °F 35.6 °F 71% 29.72 in 10.0 mi South 12.7 mph 21.9 mph N/A   Scattered Clouds
10:15 PM 44.6 °F 38.8 °F 37.4 °F 76% 29.72 in 10.0 mi South 11.5 mph 20.7 mph N/A   Clear
10:55 PM 42.8 °F 37.5 °F 37.4 °F 81% 29.73 in 10.0 mi South 9.2 mph 19.6 mph N/A   Clear
11:15 PM 42.8 °F 35.4 °F 37.4 °F 81% 29.72 in 10.0 mi South 15.0 mph 19.6 mph N/A   Scattered Clouds
11:35 PM 42.8 °F 37.0 °F 37.4 °F 81% 29.72 in 10.0 mi South 10.4 mph 17.3 mph N/A   Scattered Clouds
11:55 PM 42.8 °F 36.6 °F 37.4 °F 81% 29.73 in 10.0 mi South 11.5 mph 18.4 mph N/A   Mostly Cloudy